Location: Unspecified
(0.0000°N, 0.0000°E)
Time: 23:30:10
(UTC+00:00)

deb Explorer IX - Visible Passes

Search period start: 20 October 2017 00:00
Search period end: 30 October 2017 00:00
Orbit: 541 x 1123 km, 38.8° (Epoch: 19 October)

Date Brightness Start Highest point End Pass type
(mag) Time Alt. Az. Time Alt. Az. Time Alt. Az.
20 Oct ? 03:44:26 13° NE 03:44:26 13° NE 03:46:25 10° ENE visible
20 Oct ? 18:09:54 10° W 18:16:02 28° NW 18:21:47 10° NNE visible
21 Oct ? 03:26:09 12° ENE 03:26:09 12° ENE 03:26:49 10° ENE visible
21 Oct ? 05:07:42 11° WNW 05:11:20 44° SW 05:15:26 10° SSE visible
22 Oct ? 04:49:22 22° W 04:51:30 39° SW 04:55:27 10° SSE visible
23 Oct ? 04:31:00 33° WSW 04:31:40 35° SW 04:35:29 10° SSE visible
24 Oct ? 04:12:34 30° SSW 04:12:34 30° SSW 04:15:31 10° SSE visible
25 Oct ? 03:54:05 19° S 03:54:05 19° S 03:55:33 10° SSE visible
26 Oct ? 03:35:31 10° SSE 03:35:31 10° SSE 03:35:37 10° SSE visible
